TimeAKDT,TemperatureF,Dew PointF,Humidity,Sea Level PressureIn,VisibilityMPH,Wind Direction,Wind SpeedMPH,Gust SpeedMPH,PrecipitationIn,Events,Conditions,WindDirDegrees,DateUTC
12:05 AM,51.8,50.0,94,29.31,6.0,South,9.2,-,0.00,Rain,Light Rain,170,2012-10-13 08:05:00
12:15 AM,51.8,51.8,100,29.32,2.5,South,11.5,-,0.03,Rain,Rain,190,2012-10-13 08:15:00
12:31 AM,51.8,51.8,100,29.34,4.0,SSW,16.1,21.9,0.05,Rain,Light Rain,210,2012-10-13 08:31:00
12:53 AM,51.1,50.0,96,29.36,10.0,SW,16.1,-,0.06,,Overcast,230,2012-10-13 08:53:00
1:08 AM,50.0,48.2,94,29.37,10.0,SW,21.9,-,N/A,,Overcast,230,2012-10-13 09:08:00
1:53 AM,51.1,46.9,86,29.41,10.0,SSW,15.0,23.0,0.00,,Overcast,200,2012-10-13 09:53:00
2:53 AM,51.1,46.0,83,29.43,10.0,SSE,8.1,-,N/A,,Overcast,150,2012-10-13 10:53:00
3:53 AM,48.9,48.0,97,29.44,5.0,South,9.2,-,0.07,Rain,Rain,180,2012-10-13 11:53:00
4:12 AM,48.2,46.4,93,29.44,5.0,ESE,5.8,-,0.04,Rain,Light Rain,120,2012-10-13 12:12:00
4:41 AM,50.0,46.4,87,29.44,10.0,Variable,6.9,-,0.05,,Overcast,0,2012-10-13 12:41:00
4:53 AM,50.0,46.0,86,29.44,7.0,ESE,11.5,17.3,0.05,Rain,Light Rain,120,2012-10-13 12:53:00
5:19 AM,48.2,46.4,93,29.47,4.0,South,18.4,31.1,0.12,Rain,Rain,190,2012-10-13 13:19:00
5:53 AM,48.9,46.9,93,29.48,10.0,South,9.2,-,0.13,,Overcast,170,2012-10-13 13:53:00
6:15 AM,50.0,46.4,87,29.49,10.0,SSE,8.1,-,N/A,,Mostly Cloudy,160,2012-10-13 14:15:00
6:37 AM,50.0,46.4,87,29.50,10.0,South,11.5,-,N/A,,Mostly Cloudy,170,2012-10-13 14:37:00
6:53 AM,50.0,46.0,86,29.51,10.0,SSE,12.7,21.9,N/A,,Mostly Cloudy,160,2012-10-13 14:53:00
7:53 AM,50.0,45.0,83,29.52,10.0,SE,10.4,-,N/A,,Overcast,140,2012-10-13 15:53:00
8:53 AM,50.0,44.1,80,29.52,10.0,SE,8.1,-,0.01,,Overcast,130,2012-10-13 16:53:00
9:53 AM,48.9,46.0,90,29.51,2.5,SE,15.0,-,0.05,Rain,Rain,140,2012-10-13 17:53:00
10:00 AM,48.2,46.4,93,29.51,3.0,ESE,12.7,20.7,0.01,Rain,Light Rain,120,2012-10-13 18:00:00
10:53 AM,51.1,45.0,80,29.51,8.0,SE,20.7,35.7,0.08,Rain,Light Rain,130,2012-10-13 18:53:00
11:07 AM,51.8,46.4,82,29.50,10.0,South,23.0,36.8,0.00,Rain,Light Rain,170,2012-10-13 19:07:00
11:43 AM,53.6,48.2,82,29.50,9.0,SSE,26.5,39.1,0.02,Rain,Light Rain,160,2012-10-13 19:43:00
11:53 AM,53.1,48.0,83,29.51,10.0,South,26.5,40.3,0.02,Rain,Light Rain,170,2012-10-13 19:53:00
12:53 PM,53.1,48.9,86,29.51,4.0,South,25.3,46.0,0.02,Rain,Light Rain,170,2012-10-13 20:53:00
1:14 PM,51.8,48.2,88,29.51,2.0,South,29.9,42.6,0.04,Rain,Rain,170,2012-10-13 21:14:00
1:53 PM,53.1,51.1,93,29.52,3.0,South,27.6,44.9,0.08,Rain,Light Rain,170,2012-10-13 21:53:00
2:22 PM,53.6,50.0,88,29.51,2.5,South,32.2,46.0,0.05,Rain,Light Rain,180,2012-10-13 22:22:00
2:53 PM,52.0,50.0,93,29.51,2.0,South,24.2,38.0,0.16,Rain,Heavy Rain,180,2012-10-13 22:53:00
3:53 PM,53.1,50.0,89,29.50,2.0,South,28.8,40.3,0.17,Rain,Rain,170,2012-10-13 23:53:00
4:53 PM,52.0,50.0,93,29.51,2.0,South,27.6,38.0,0.21,Rain,Heavy Rain,170,2012-10-14 00:53:00
5:53 PM,51.8,48.2,88,29.49,2.0,SSE,23.0,36.8,N/A,Rain,Rain,160,2012-10-14 01:53:00
6:44 PM,53.6,44.6,72,29.48,10.0,SSE,13.8,25.3,0.07,Rain,Light Rain,150,2012-10-14 02:44:00
6:53 PM,54.0,46.0,75,29.48,10.0,SSE,17.3,28.8,0.07,,Overcast,160,2012-10-14 02:53:00
7:53 PM,53.1,45.0,74,29.47,10.0,ESE,11.5,-,N/A,,Overcast,110,2012-10-14 03:53:00
8:53 PM,51.8,46.4,82,29.43,10.0,ESE,4.6,-,N/A,,Overcast,120,2012-10-14 04:53:00
9:53 PM,51.1,46.0,83,29.39,10.0,East,12.7,-,0.00,,Mostly Cloudy,100,2012-10-14 05:53:00
10:53 PM,50.0,45.0,83,29.35,10.0,ESE,11.5,-,0.00,,Mostly Cloudy,120,2012-10-14 06:53:00
11:53 PM,51.1,45.0,80,29.29,10.0,SE,10.4,-,N/A,,Mostly Cloudy,130,2012-10-14 07:53:00